Location: Napoli
(40.8330°N, 14.2500°E)
Time: 13:39:33
(UTC+02:00)

ISS - Visible Passes

Search period start: 14 May 2025 00:00
Search period end: 24 May 2025 00:00
Orbit: 416 x 419 km, 51.6° (Epoch: 14 May)

Date Brightness Start Highest point End Pass type
(mag) Time Alt. Az. Time Alt. Az. Time Alt. Az.
14 May -1.0 21:26:37 10° WNW 21:29:12 20° NNW 21:31:46 10° NNE visible
14 May -0.6 23:05:16 10° NNW 23:06:57 13° N 23:08:38 10° NNE visible
15 May -0.5 00:41:53 10° NNW 00:42:22 13° NNW 00:42:22 13° NNW visible
15 May -0.7 22:17:00 10° NW 22:18:43 13° N 22:20:27 10° NNE visible
15 May -0.9 23:54:05 10° NNW 23:56:00 18° N 23:56:00 18° N visible
16 May -0.8 21:28:33 10° NW 21:30:29 14° N 21:32:26 10° NNE visible
16 May -1.0 23:06:14 10° NNW 23:08:19 15° NNE 23:09:36 13° NE visible
17 May -0.4 00:42:29 10° NW 00:42:30 10° NW 00:42:30 10° NW visible
17 May -0.8 22:18:16 10° NNW 22:20:04 14° N 22:21:54 10° NE visible
17 May -1.1 23:54:37 10° NW 23:56:06 21° NNW 23:56:06 21° NNW visible
18 May -0.8 21:30:07 10° NNW 21:31:48 13° N 21:33:29 10° NNE visible
18 May -1.6 23:06:45 10° NNW 23:09:30 23° NNE 23:09:42 22° NNE visible
19 May -1.2 22:18:54 10° NNW 22:21:18 18° NNE 22:23:17 12° ENE visible
19 May -1.1 23:55:10 10° NW 23:56:11 18° NW 23:56:11 18° NW visible
20 May -1.0 21:30:58 10° NNW 21:33:02 15° NNE 21:35:06 10° NE visible
20 May -2.4 23:07:13 10° NW 23:09:47 38° N 23:09:47 38° N visible
21 May -2.2 22:19:17 10° NW 22:22:18 30° NNE 22:23:23 24° ENE visible
21 May -0.7 23:55:59 10° WNW 23:56:18 12° WNW 23:56:18 12° WNW visible
22 May -1.7 21:31:22 10° NNW 21:34:05 22° NNE 21:36:48 10° ENE visible
22 May -2.3 23:07:47 10° WNW 23:09:55 35° WNW 23:09:55 35° WNW visible
23 May -3.7 22:19:42 10° NW 22:23:03 70° NE 22:23:33 57° E visible
